Precipitable_Water
0.81 0.77 0.82 0.87 0.86 0.98 0.85 0.83 0.76 0.69 0.67 0.74 0.81 0.86 0.86 0.86 0.81 0.73 0.85 0.87 0.78 0.82 0.99 1.09 1.12 1.13 1.09 1.06 1.03 1.03 1.09 1.09 1.03
0.81 0.78 0.82 0.79 0.88 0.88 0.88 0.78 0.71 0.61 0.58 0.72 0.77 0.81 0.82 0.83 0.80 0.78 0.80 0.85 0.89 0.84 0.88 0.91 0.97 0.97 0.95 0.92 0.95 1.02 1.01 0.98 0.94
0.78 0.82 0.80 0.83 0.93 1.02 0.94 0.82 0.71 0.60 0.66 0.75 0.82 0.86 0.87 0.84 0.84 0.87 0.91 0.94 0.83 0.90 0.88 0.90 0.86 0.83 0.84 0.92 1.00 0.99 0.97 0.95 0.89
0.77 0.83 0.80 0.82 1.04 1.10 0.96 0.83 0.72 0.60 0.70 0.79 0.83 0.86 0.87 0.86 0.86 0.79 0.82 1.04 0.98 0.90 0.85 0.79 0.84 0.93 1.03 1.06 0.99 0.93 0.90 0.84 0.82
0.80 0.87 0.88 0.89 1.00 1.02 0.93 0.79 0.68 0.59 0.75 0.78 0.85 0.87 0.86 0.86 0.88 0.81 0.90 1.15 1.09 0.93 0.93 1.08 1.10 1.18 1.09 1.01 0.96 0.93 0.88 0.83 0.88
0.79 0.83 0.86 0.91 0.86 0.89 0.86 0.70 0.60 0.65 0.76 0.81 0.86 0.88 0.88 0.83 0.86 0.87 1.03 1.20 1.19 0.98 1.17 1.18 1.07 1.12 1.05 0.99 0.95 0.94 0.89 0.88 0.86
0.77 0.79 0.83 0.89 0.86 0.83 0.79 0.67 0.64 0.74 0.79 0.81 0.90 0.94 0.89 0.84 0.84 0.88 1.01 1.08 1.09 0.98 1.18 1.06 1.06 1.04 1.03 0.97 0.95 0.92 0.85 0.84 0.87
0.78 0.82 0.92 0.87 0.81 0.74 0.74 0.68 0.81 0.82 0.82 0.82 0.88 0.99 0.98 0.89 0.95 0.91 0.94 0.97 1.00 1.09 1.11 1.03 1.00 0.95 0.93 0.90 0.88 0.83 0.85 0.88 0.94
0.74 0.76 0.84 0.83 0.79 0.70 0.65 0.67 0.81 0.83 0.84 0.86 0.93 0.97 0.97 0.94 1.05 0.96 0.98 1.02 1.01 1.18 1.07 1.05 1.00 0.95 0.90 0.86 0.86 0.90 0.91 0.95 0.92
0.72 0.72 0.76 0.77 0.73 0.67 0.75 0.75 0.71 0.79 0.85 0.95 0.96 0.99 1.00 1.01 1.09 1.08 1.16 1.21 1.20 1.14 1.08 1.02 0.95 0.91 0.89 0.91 0.93 0.98 0.93 0.86 0.92
0.72 0.70 0.72 0.75 0.74 0.72 0.78 0.77 0.73 0.77 0.86 0.93 0.97 1.00 1.01 1.04 1.11 1.15 1.15 1.27 1.26 1.14 1.05 0.99 0.91 0.89 0.92 1.01 0.96 0.88 1.03 0.97 0.91
0.72 0.65 0.70 0.74 0.80 0.73 0.74 0.77 0.78 0.78 0.83 0.85 0.93 0.97 1.01 1.06 1.14 1.16 1.21 1.29 1.26 1.17 1.08 1.04 0.91 0.98 1.00 0.92 0.87 0.99 0.91 0.87 0.82
0.74 0.67 0.68 0.73 0.76 0.75 0.70 0.76 0.74 0.76 0.77 0.76 0.85 0.97 1.05 1.09 1.16 1.18 1.24 1.25 1.23 1.19 1.11 1.04 1.03 1.04 0.99 0.92 0.98 0.93 0.88 0.82 0.79
0.75 0.69 0.71 0.73 0.74 0.74 0.69 0.71 0.72 0.71 0.73 0.75 0.80 0.91 1.01 1.07 1.12 1.13 1.20 1.22 1.23 1.20 1.12 1.14 1.10 1.06 0.94 0.96 0.96 0.90 0.84 0.81 0.79
0.75 0.75 0.73 0.74 0.71 0.72 0.71 0.68 0.71 0.68 0.70 0.72 0.73 0.81 0.93 1.06 1.10 1.09 1.18 1.17 1.22 1.20 1.14 1.11 1.06 1.03 0.91 0.94 0.94 0.89 0.84 0.80 0.77
0.74 0.74 0.73 0.74 0.72 0.70 0.72 0.70 0.64 0.63 0.66 0.64 0.65 0.70 0.80 0.93 1.03 1.10 1.12 1.17 1.18 1.15 1.13 1.11 1.03 1.00 0.89 0.96 0.94 0.91 0.83 0.78 0.73
0.83 0.72 0.70 0.71 0.71 0.73 0.71 0.66 0.61 0.61 0.65 0.57 0.58 0.51 0.61 0.76 0.94 1.00 1.05 1.09 1.12 1.16 1.11 1.08 1.02 0.96 0.92 0.96 0.94 0.90 0.83 0.76 0.72
0.94 0.76 0.71 0.70 0.70 0.68 0.70 0.67 0.62 0.53 0.60 0.62 0.49 0.42 0.39 0.54 0.73 0.91 0.97 0.95 0.96 1.03 1.07 1.09 1.00 0.91 0.90 0.91 0.88 0.86 0.83 0.79 0.74
1.16 0.92 0.73 0.69 0.72 0.68 0.69 0.69 0.63 0.57 0.50 0.58 0.56 0.50 0.45 0.42 0.45 0.69 0.81 0.90 0.91 0.96 0.99 0.96 0.93 0.89 0.84 0.86 0.86 0.85 0.84 0.81 0.76
1.19 1.09 0.84 0.69 0.71 0.70 0.68 0.67 0.63 0.61 0.54 0.52 0.52 0.50 0.47 0.46 0.41 0.43 0.57 0.77 0.88 0.92 0.92 0.91 0.89 0.86 0.82 0.81 0.81 0.82 0.81 0.81 0.81
Wind_Speed
10 11 11 10 10 9 8 7 7 7 8 8 7 7 6 7 6 7 6 6 6 6 7 9 9 10 10 10 10 10 11 11 12
11 11 11 11 11 9 8 7 7 7 7 7 6 5 5 6 6 6 6 6 7 7 8 7 8 9 9 9 9 10 11 11 11
11 12 12 11 11 10 9 8 7 7 7 7 5 5 6 6 6 6 7 7 8 8 9 9 9 9 9 10 10 10 11 11 11
12 12 12 12 11 11 9 8 8 7 8 6 5 6 6 5 6 6 7 7 8 9 9 9 10 10 11 11 10 11 11 11 11
13 13 13 13 12 11 10 9 9 9 8 6 6 7 6 7 7 7 8 8 9 9 10 10 10 11 11 11 11 11 11 11 11
15 14 14 14 13 12 12 11 10 10 9 8 7 7 7 7 7 8 9 9 9 9 9 11 10 10 10 9 10 10 10 10 11
17 16 16 15 14 13 13 12 12 11 10 9 8 8 8 7 8 8 9 8 7 8 9 8 8 7 8 8 8 9 9 10 10
18 17 17 16 16 15 14 14 14 12 11 10 10 10 9 9 9 8 8 7 7 8 8 7 6 6 6 7 7 7 8 9 9
19 19 18 17 17 16 16 16 15 13 12 12 11 11 10 10 10 9 9 8 9 7 6 5 4 5 5 5 6 7 6 7 8
21 21 20 19 18 18 18 17 17 15 13 15 13 12 11 11 11 10 9 9 9 6 5 3 2 3 4 4 5 6 6 6 7
23 23 23 22 20 21 20 18 18 17 16 15 15 14 12 13 12 11 10 10 9 6 3 1 1 1 2 3 5 5 5 6 8
24 25 25 24 23 23 22 21 20 19 18 17 16 15 14 14 13 12 11 11 9 6 4 2 1 1 3 4 5 5 6 8 9
27 26 26 26 25 25 24 23 22 21 20 19 18 17 16 15 14 14 13 12 9 7 5 3 2 2 5 6 6 7 8 9 10
27 27 27 26 26 26 26 25 25 23 22 21 19 18 17 17 16 15 15 14 11 8 7 5 4 6 7 8 8 9 10 11 12
29 28 28 28 27 27 28 27 26 25 24 22 20 19 18 17 17 16 16 15 13 11 9 8 8 9 9 9 9 10 12 14 14
30 30 30 30 30 29 30 29 28 27 27 24 22 20 19 19 18 18 17 16 14 13 11 11 10 11 11 11 11 12 14 14 13
31 31 31 31 31 31 31 31 29 29 29 27 24 23 21 21 20 20 19 18 16 15 14 14 14 13 13 13 13 14 16 15 14
32 33 33 33 32 32 32 33 32 30 30 31 26 24 23 23 23 22 21 21 20 19 18 17 16 16 16 16 17 17 17 16 16
33 34 34 34 34 34 33 34 33 33 32 32 29 26 24 24 23 25 24 23 23 21 20 19 19 19 18 19 19 19 19 18 18
34 35 36 36 36 36 35 35 35 35 34 33 30 28 26 25 23 24 25 25 25 23 22 22 21 21 21 22 21 22 21 21 21
Wind_Direction
180 178 175 173 170 165 156 151 145 139 138 137 128 118 113 116 107 105 99 92 88 91 89 81 78 75 71 67 61 57 57 55 51
186 184 182 181 178 177 169 160 155 150 148 147 138 129 131 122 114 109 106 101 95 94 95 87 81 75 70 65 64 62 59 54 49
193 190 188 186 185 183 180 176 171 164 160 156 148 138 137 132 116 113 108 105 102 97 94 87 83 79 75 72 70 64 58 52 48
198 195 194 192 191 189 190 189 185 178 172 167 160 155 148 145 134 128 122 110 105 101 93 91 86 81 79 76 68 61 56 52 50
202 201 199 199 199 199 199 198 195 189 183 179 165 154 153 143 139 129 126 114 112 98 99 93 88 86 79 72 65 61 57 53 53
209 207 205 205 207 208 208 206 201 194 191 188 181 174 164 154 149 140 134 118 118 105 103 98 91 84 75 66 59 57 54 52 50
214 213 212 210 210 211 211 210 205 197 198 199 191 188 178 169 162 153 150 140 125 117 110 100 90 81 69 58 57 54 51 47 45
217 215 215 215 215 214 213 209 203 203 204 204 198 187 182 176 168 161 162 156 141 128 117 100 87 76 64 56 52 45 45 44 38
220 219 218 218 218 217 213 210 210 212 212 210 197 194 188 181 175 167 160 156 149 141 128 106 83 67 55 50 44 41 39 34 27
224 223 221 221 221 217 215 217 218 217 212 203 199 195 192 188 183 177 173 167 160 153 141 114 70 53 47 37 30 25 19 11 9
230 227 225 224 223 219 219 221 218 218 208 208 205 202 200 194 193 191 186 181 177 176 171 127 28 36 18 16 7 1 8 359 349
231 228 228 226 226 225 224 221 219 216 211 211 208 205 203 200 200 196 193 191 195 198 205 265 281 311 347 340 339 340 335 335 335
231 230 229 227 228 226 224 222 220 216 213 212 210 207 206 204 204 204 202 205 208 212 226 238 256 288 310 314 315 317 321 325 324
230 230 229 228 227 228 225 224 221 217 214 211 211 209 211 211 212 213 212 212 218 226 225 239 264 293 302 302 305 307 314 318 318
231 231 231 230 230 229 226 223 221 218 215 211 211 215 216 218 218 216 216 220 231 228 232 251 277 286 294 296 298 306 309 309 310
233 233 232 232 231 230 225 222 219 217 216 216 214 218 221 222 221 222 222 224 233 234 242 262 273 283 288 288 293 303 306 311 310
234 233 233 232 231 228 224 222 221 220 218 220 220 224 227 225 227 228 228 230 230 237 253 262 269 279 284 282 288 296 300 304 305
234 233 232 232 230 226 224 222 222 220 221 219 225 226 230 227 231 231 233 235 240 249 255 265 266 274 279 280 284 291 295 296 299
236 234 232 231 228 226 225 223 223 221 222 221 227 229 228 232 235 237 238 239 244 251 258 262 266 272 275 279 282 288 291 291 293
237 236 233 231 228 226 225 223 224 224 224 224 227 230 232 233 237 239 240 242 246 252 259 263 265 269 273 279 280 283 285 287 289